Time,TemperatureF,DewpointF,PressureIn,WindDirection,WindDirectionDegrees,WindSpeedMPH,WindSpeedGustMPH,Humidity,HourlyPrecipIn,Conditions,Clouds,dailyrainin,SoftwareType,DateUTC
2013-01-03 00:03:00,51.6,49.7,30.33,NW,315,1.6,3.8,93,0.00,,,0.01,pywws,2013-01-03 00:03:00,
2013-01-03 00:08:00,51.6,49.7,30.33,NW,315,0.0,1.6,93,0.00,,,0.00,pywws,2013-01-03 00:08:00,
2013-01-03 00:13:00,51.6,49.7,30.33,North,0,0.7,2.2,93,0.00,,,0.00,pywws,2013-01-03 00:13:00,
2013-01-03 00:18:00,51.6,49.7,30.34,North,0,1.6,3.8,93,0.00,,,0.00,pywws,2013-01-03 00:18:00,
2013-01-03 00:23:00,51.6,49.7,30.34,West,270,1.6,3.1,93,0.00,,,0.00,pywws,2013-01-03 00:23:00,
2013-01-03 00:29:00,51.6,49.7,30.34,NW,315,0.0,0.7,93,0.00,,,0.00,pywws,2013-01-03 00:29:00,
2013-01-03 00:34:00,51.6,49.7,30.34,WSW,248,0.0,0.7,93,0.00,,,0.00,pywws,2013-01-03 00:34:00,
2013-01-03 00:39:00,51.6,49.7,30.34,West,270,0.0,0.0,93,0.00,,,0.00,pywws,2013-01-03 00:39:00,
2013-01-03 00:45:00,51.4,49.5,30.34,West,270,0.0,0.0,93,0.00,,,0.00,pywws,2013-01-03 00:45:00,
2013-01-03 00:50:00,51.4,49.5,30.34,East,90,0.0,0.0,93,0.00,,,0.00,pywws,2013-01-03 00:50:00,
2013-01-03 00:55:00,51.3,49.3,30.34,SW,225,0.0,0.0,93,0.00,,,0.00,pywws,2013-01-03 00:55:00,
2013-01-03 01:02:00,51.3,49.3,30.34,East,90,0.0,0.7,93,0.00,,,0.00,pywws,2013-01-03 01:02:00,
2013-01-03 01:07:00,51.1,49.4,30.34,East,90,0.0,0.0,94,0.00,,,0.00,pywws,2013-01-03 01:07:00,
2013-01-03 01:13:00,51.1,49.4,30.34,NE,45,0.0,0.0,94,0.00,,,0.00,pywws,2013-01-03 01:13:00,
2013-01-03 01:18:00,50.9,49.2,30.35,North,0,0.0,0.0,94,0.00,,,0.00,pywws,2013-01-03 01:18:00,
2013-01-03 01:23:00,50.9,49.2,30.35,SSE,158,0.0,0.0,94,0.00,,,0.00,pywws,2013-01-03 01:23:00,
2013-01-03 01:28:00,50.9,49.5,30.35,NE,45,0.0,0.0,95,0.00,,,0.00,pywws,2013-01-03 01:28:00,
2013-01-03 01:34:00,51.1,49.7,30.35,SE,135,0.7,3.1,95,0.00,,,0.00,pywws,2013-01-03 01:34:00,
2013-01-03 01:39:00,51.1,49.7,30.36,SE,135,0.0,0.0,95,0.00,,,0.00,pywws,2013-01-03 01:39:00,
2013-01-03 01:44:00,51.1,49.7,30.36,NE,45,0.0,0.0,95,0.00,,,0.00,pywws,2013-01-03 01:44:00,
2013-01-03 01:50:00,51.3,49.9,30.36,NW,315,0.0,0.0,95,0.00,,,0.00,pywws,2013-01-03 01:50:00,
2013-01-03 01:55:00,51.3,49.6,30.36,East,90,0.0,1.6,94,0.00,,,0.00,pywws,2013-01-03 01:55:00,
2013-01-03 02:02:00,51.3,49.9,30.36,NW,315,0.0,0.0,95,0.00,,,0.00,pywws,2013-01-03 02:02:00,
2013-01-03 02:07:00,51.3,49.9,30.36,NW,315,0.7,3.8,95,0.00,,,0.00,pywws,2013-01-03 02:07:00,
2013-01-03 02:13:00,51.3,49.9,30.37,NW,315,0.7,3.8,95,0.00,,,0.00,pywws,2013-01-03 02:13:00,
2013-01-03 02:18:00,51.3,49.6,30.36,NE,45,0.0,0.0,94,0.00,,,0.00,pywws,2013-01-03 02:18:00,
2013-01-03 02:23:00,51.3,49.6,30.37,SE,135,0.0,0.0,94,0.00,,,0.00,pywws,2013-01-03 02:23:00,
2013-01-03 02:28:00,51.3,49.6,30.37,NW,315,0.7,5.4,94,0.00,,,0.00,pywws,2013-01-03 02:28:00,
2013-01-03 02:34:00,51.3,49.6,30.37,North,0,0.0,0.0,94,0.00,,,0.00,pywws,2013-01-03 02:34:00,
2013-01-03 02:39:00,51.3,49.6,30.37,NNE,22,0.0,1.6,94,0.00,,,0.00,pywws,2013-01-03 02:39:00,
2013-01-03 02:44:00,51.3,49.6,30.37,SE,135,0.0,2.2,94,0.00,,,0.00,pywws,2013-01-03 02:44:00,
2013-01-03 02:49:00,51.3,49.6,30.37,North,0,0.0,0.7,94,0.00,,,0.00,pywws,2013-01-03 02:49:00,
2013-01-03 02:54:00,51.3,49.6,30.37,NE,45,0.0,0.0,94,0.00,,,0.00,pywws,2013-01-03 02:54:00,
2013-01-03 02:59:00,51.1,49.4,30.37,East,90,0.0,3.1,94,0.00,,,0.00,pywws,2013-01-03 02:59:00,
2013-01-03 03:06:00,51.1,49.4,30.37,East,90,0.0,3.1,94,0.00,,,0.00,pywws,2013-01-03 03:06:00,
2013-01-03 03:11:00,51.1,49.4,30.37,North,0,0.0,0.0,94,0.00,,,0.00,pywws,2013-01-03 03:11:00,
2013-01-03 03:16:00,51.1,49.7,30.37,NE,45,0.0,0.0,95,0.00,,,0.00,pywws,2013-01-03 03:16:00,
2013-01-03 03:21:00,51.1,49.7,30.37,NW,315,0.0,0.7,95,0.00,,,0.00,pywws,2013-01-03 03:21:00,
2013-01-03 03:26:00,51.1,49.7,30.37,NW,315,0.0,3.1,95,0.00,,,0.00,pywws,2013-01-03 03:26:00,
2013-01-03 03:31:00,51.1,49.7,30.38,NW,315,0.7,3.8,95,0.00,,,0.00,pywws,2013-01-03 03:31:00,
2013-01-03 03:37:00,51.1,49.7,30.38,NW,315,0.0,0.0,95,0.00,,,0.00,pywws,2013-01-03 03:37:00,
2013-01-03 03:42:00,51.1,49.7,30.38,West,270,0.0,0.0,95,0.00,,,0.00,pywws,2013-01-03 03:42:00,
2013-01-03 03:47:00,51.1,49.7,30.38,NE,45,0.0,0.0,95,0.00,,,0.00,pywws,2013-01-03 03:47:00,
2013-01-03 03:52:00,50.9,49.5,30.38,NE,45,0.0,0.7,95,0.00,,,0.00,pywws,2013-01-03 03:52:00,
2013-01-03 03:58:00,50.9,49.5,30.38,North,0,0.0,0.7,95,0.00,,,0.00,pywws,2013-01-03 03:58:00,
2013-01-03 04:03:00,50.9,49.5,30.38,South,180,0.0,0.7,95,0.00,,,0.00,pywws,2013-01-03 04:03:00,
2013-01-03 04:08:00,50.9,49.5,30.38,South,180,0.0,0.7,95,0.00,,,0.00,pywws,2013-01-03 04:08:00,
2013-01-03 04:13:00,50.7,49.3,30.38,East,90,0.0,0.7,95,0.00,,,0.00,pywws,2013-01-03 04:13:00,
2013-01-03 04:18:00,50.7,49.3,30.38,West,270,0.0,0.0,95,0.00,,,0.00,pywws,2013-01-03 04:18:00,
2013-01-03 04:23:00,50.5,49.2,30.38,North,0,0.0,0.7,95,0.00,,,0.00,pywws,2013-01-03 04:23:00,
2013-01-03 04:28:00,50.5,49.2,30.38,SE,135,0.0,0.7,95,0.00,,,0.00,pywws,2013-01-03 04:28:00,
2013-01-03 04:34:00,50.4,49.0,30.39,North,0,0.7,2.2,95,0.00,,,0.00,pywws,2013-01-03 04:34:00,
2013-01-03 04:39:00,50.4,49.0,30.40,North,0,0.7,2.2,95,0.00,,,0.00,pywws,2013-01-03 04:39:00,
2013-01-03 04:44:00,50.4,49.0,30.40,North,0,0.0,0.0,95,0.00,,,0.00,pywws,2013-01-03 04:44:00,
2013-01-03 04:49:00,50.2,48.8,30.40,NW,315,0.0,0.0,95,0.00,,,0.00,pywws,2013-01-03 04:49:00,
2013-01-03 04:54:00,50.0,48.6,30.40,SE,135,0.0,0.0,95,0.00,,,0.00,pywws,2013-01-03 04:54:00,
2013-01-03 04:59:00,50.2,49.1,30.40,NE,45,0.0,0.0,96,0.00,,,0.00,pywws,2013-01-03 04:59:00,
2013-01-03 05:02:00,50.0,48.6,30.40,West,270,0.0,0.0,95,0.00,,,0.00,pywws,2013-01-03 05:02:00,
2013-01-03 05:03:00,50.0,48.6,30.40,West,270,0.0,0.0,95,0.00,,,0.00,pywws,2013-01-03 05:03:00,
2013-01-03 05:08:00,50.0,48.6,30.40,South,180,0.0,0.0,95,0.00,,,0.00,pywws,2013-01-03 05:08:00,
2013-01-03 05:14:00,50.0,48.9,30.40,SE,135,0.0,0.0,96,0.00,,,0.00,pywws,2013-01-03 05:14:00,
2013-01-03 05:19:00,50.0,48.9,30.40,NE,45,0.0,0.0,96,0.00,,,0.00,pywws,2013-01-03 05:19:00,
2013-01-03 05:24:00,50.0,48.9,30.40,SE,135,0.0,0.0,96,0.00,,,0.00,pywws,2013-01-03 05:24:00,
2013-01-03 05:30:00,50.0,48.9,30.40,South,180,0.0,0.0,96,0.00,,,0.00,pywws,2013-01-03 05:30:00,
2013-01-03 05:35:00,49.8,48.7,30.40,East,90,0.0,0.0,96,0.00,,,0.00,pywws,2013-01-03 05:35:00,
2013-01-03 05:40:00,49.8,48.7,30.41,WNW,292,0.0,0.0,96,0.00,,,0.00,pywws,2013-01-03 05:40:00,
2013-01-03 05:45:00,49.6,48.5,30.41,SE,135,0.0,2.2,96,0.00,,,0.00,pywws,2013-01-03 05:45:00,
2013-01-03 05:50:00,49.6,48.5,30.41,East,90,0.0,0.7,96,0.00,,,0.00,pywws,2013-01-03 05:50:00,
2013-01-03 05:55:00,49.6,48.5,30.41,North,0,0.0,0.0,96,0.00,,,0.00,pywws,2013-01-03 05:55:00,
2013-01-03 06:02:00,49.6,48.5,30.41,NE,45,0.0,0.0,96,0.00,,,0.00,pywws,2013-01-03 06:02:00,
2013-01-03 06:08:00,49.6,48.5,30.40,SE,135,0.7,3.8,96,0.00,,,0.00,pywws,2013-01-03 06:08:00,
2013-01-03 06:13:00,49.6,48.5,30.41,WNW,292,0.0,0.7,96,0.00,,,0.00,pywws,2013-01-03 06:13:00,
2013-01-03 06:18:00,49.6,48.5,30.41,South,180,1.6,6.9,96,0.00,,,0.00,pywws,2013-01-03 06:18:00,
2013-01-03 06:23:00,49.8,48.7,30.41,East,90,0.0,3.1,96,0.00,,,0.00,pywws,2013-01-03 06:23:00,
2013-01-03 06:28:00,49.8,48.7,30.41,NE,45,0.0,0.0,96,0.00,,,0.00,pywws,2013-01-03 06:28:00,
2013-01-03 06:33:00,49.8,48.7,30.42,South,180,0.0,1.6,96,0.00,,,0.00,pywws,2013-01-03 06:33:00,
2013-01-03 06:38:00,49.8,48.7,30.42,NE,45,0.0,0.0,96,0.00,,,0.00,pywws,2013-01-03 06:38:00,
2013-01-03 06:39:00,49.8,48.7,30.42,NE,45,0.0,0.0,96,0.00,,,0.00,pywws,2013-01-03 06:39:00,
2013-01-03 06:43:00,49.8,48.7,30.42,NE,45,0.0,0.0,96,0.00,,,0.00,pywws,2013-01-03 06:43:00,
2013-01-03 06:48:00,49.8,48.7,30.42,NE,45,0.0,0.0,96,0.00,,,0.00,pywws,2013-01-03 06:48:00,
2013-01-03 06:54:00,49.8,48.7,30.42,North,0,0.0,0.7,96,0.00,,,0.00,pywws,2013-01-03 06:54:00,
2013-01-03 06:59:00,49.8,48.7,30.43,NW,315,0.7,3.8,96,0.00,,,0.00,pywws,2013-01-03 06:59:00,
2013-01-03 07:06:00,49.8,49.0,30.43,North,0,0.0,3.1,97,0.00,,,0.00,pywws,2013-01-03 07:06:00,
2013-01-03 07:11:00,49.8,49.0,30.44,NW,315,0.7,2.2,97,0.00,,,0.00,pywws,2013-01-03 07:11:00,
2013-01-03 07:16:00,50.0,49.2,30.44,West,270,0.7,3.8,97,0.00,,,0.00,pywws,2013-01-03 07:16:00,
2013-01-03 07:21:00,50.0,49.2,30.45,NW,315,2.2,4.5,97,0.00,,,0.00,pywws,2013-01-03 07:21:00,
2013-01-03 07:26:00,50.0,49.2,30.45,North,0,0.0,2.2,97,0.00,,,0.00,pywws,2013-01-03 07:26:00,
2013-01-03 07:31:00,50.0,49.2,30.45,NW,315,0.7,3.1,97,0.00,,,0.00,pywws,2013-01-03 07:31:00,
2013-01-03 07:36:00,50.0,49.2,30.45,West,270,0.0,2.2,97,0.00,,,0.00,pywws,2013-01-03 07:36:00,
2013-01-03 07:41:00,50.0,49.2,30.45,NNE,22,0.0,3.1,97,0.00,,,0.00,pywws,2013-01-03 07:41:00,
2013-01-03 07:46:00,50.0,49.2,30.45,North,0,0.0,0.0,97,0.00,,,0.00,pywws,2013-01-03 07:46:00,
2013-01-03 07:51:00,50.0,48.9,30.45,NW,315,0.0,0.0,96,0.00,,,0.00,pywws,2013-01-03 07:51:00,
2013-01-03 07:56:00,50.2,49.4,30.45,NE,45,0.0,0.7,97,0.00,,,0.00,pywws,2013-01-03 07:56:00,
2013-01-03 08:00:00,50.2,49.1,30.45,South,180,0.0,1.6,96,0.00,,,0.00,pywws,2013-01-03 08:00:00,
2013-01-03 08:02:00,50.2,49.1,30.45,South,180,0.0,1.6,96,0.00,,,0.00,pywws,2013-01-03 08:02:00,
2013-01-03 08:07:00,50.2,49.1,30.45,South,180,0.0,1.6,96,0.00,,,0.00,pywws,2013-01-03 08:07:00,
2013-01-03 08:12:00,50.4,49.3,30.46,East,90,0.0,1.6,96,0.00,,,0.00,pywws,2013-01-03 08:12:00,
2013-01-03 08:13:00,50.2,49.1,30.46,North,0,0.0,1.6,96,0.00,,,0.00,pywws,2013-01-03 08:13:00,
2013-01-03 08:15:00,50.4,49.3,30.46,South,180,0.0,1.6,96,0.00,,,0.00,pywws,2013-01-03 08:15:00,
2013-01-03 08:18:00,50.4,49.3,30.46,East,90,0.0,1.6,96,0.00,,,0.00,pywws,2013-01-03 08:18:00,
2013-01-03 08:23:00,50.4,49.3,30.46,South,180,0.0,1.6,96,0.00,,,0.00,pywws,2013-01-03 08:23:00,
2013-01-03 08:28:00,50.2,49.1,30.46,NE,45,0.0,0.0,96,0.00,,,0.00,pywws,2013-01-03 08:28:00,
2013-01-03 08:33:00,50.2,48.8,30.47,East,90,0.0,0.7,95,0.00,,,0.00,pywws,2013-01-03 08:33:00,
2013-01-03 08:38:00,50.4,49.3,30.47,West,270,0.0,1.6,96,0.00,,,0.00,pywws,2013-01-03 08:38:00,
2013-01-03 08:43:00,50.4,49.0,30.47,NW,315,0.0,0.7,95,0.00,,,0.00,pywws,2013-01-03 08:43:00,
2013-01-03 08:49:00,50.4,49.0,30.47,SW,225,0.7,3.8,95,0.00,,,0.00,pywws,2013-01-03 08:49:00,
2013-01-03 08:54:00,50.4,49.0,30.47,SE,135,0.7,6.9,95,0.00,,,0.00,pywws,2013-01-03 08:54:00,
2013-01-03 08:57:00,50.5,49.2,30.47,South,180,0.0,2.2,95,0.00,,,0.00,pywws,2013-01-03 08:57:00,
2013-01-03 08:59:00,50.5,48.9,30.47,SE,135,0.0,0.7,94,0.00,,,0.00,pywws,2013-01-03 08:59:00,
2013-01-03 09:06:00,50.5,49.2,30.47,South,180,0.0,2.2,95,0.00,,,0.00,pywws,2013-01-03 09:06:00,
2013-01-03 09:11:00,50.5,48.9,30.48,SE,135,0.0,0.7,94,0.00,,,0.00,pywws,2013-01-03 09:11:00,
2013-01-03 09:16:00,50.5,48.9,30.47,West,270,2.2,4.5,94,0.00,,,0.00,pywws,2013-01-03 09:16:00,
2013-01-03 09:21:00,50.7,49.1,30.48,North,0,0.0,0.7,94,0.00,,,0.00,pywws,2013-01-03 09:21:00,
2013-01-03 09:26:00,50.7,48.8,30.49,North,0,0.7,2.2,93,0.00,,,0.00,pywws,2013-01-03 09:26:00,
2013-01-03 09:31:00,50.9,48.9,30.49,NW,315,1.6,5.4,93,0.00,,,0.00,pywws,2013-01-03 09:31:00,
2013-01-03 09:37:00,50.9,48.7,30.49,West,270,0.7,4.5,92,0.00,,,0.00,pywws,2013-01-03 09:37:00,
2013-01-03 09:42:00,51.1,48.8,30.49,West,270,1.6,5.4,92,0.00,,,0.00,pywws,2013-01-03 09:42:00,
2013-01-03 09:47:00,51.3,49.0,30.49,South,180,0.7,3.1,92,0.00,,,0.00,pywws,2013-01-03 09:47:00,
2013-01-03 09:52:00,51.3,49.0,30.49,North,0,2.2,3.8,92,0.00,,,0.00,pywws,2013-01-03 09:52:00,
2013-01-03 09:58:00,51.3,49.0,30.50,NW,315,0.0,3.8,92,0.00,,,0.00,pywws,2013-01-03 09:58:00,
2013-01-03 10:06:00,51.3,49.0,30.50,North,0,0.0,2.2,92,0.00,,,0.00,pywws,2013-01-03 10:06:00,
2013-01-03 10:11:00,51.4,48.9,30.49,NE,45,0.0,2.2,91,0.00,,,0.00,pywws,2013-01-03 10:11:00,
2013-01-03 10:16:00,51.6,49.1,30.50,NE,45,0.0,3.8,91,0.00,,,0.00,pywws,2013-01-03 10:16:00,
2013-01-03 10:22:00,51.8,49.3,30.50,West,270,1.6,6.0,91,0.00,,,0.00,pywws,2013-01-03 10:22:00,
2013-01-03 10:27:00,51.8,49.0,30.50,NNE,22,0.7,3.1,90,0.00,,,0.00,pywws,2013-01-03 10:27:00,
2013-01-03 10:32:00,52.0,49.1,30.50,North,0,1.6,4.5,90,0.00,,,0.00,pywws,2013-01-03 10:32:00,
2013-01-03 10:37:00,52.2,49.0,30.50,West,270,3.1,6.9,89,0.00,,,0.00,pywws,2013-01-03 10:37:00,
2013-01-03 10:42:00,52.0,48.8,30.50,NE,45,0.7,3.1,89,0.00,,,0.00,pywws,2013-01-03 10:42:00,
2013-01-03 10:47:00,52.2,49.0,30.50,North,0,0.0,0.0,89,0.00,,,0.00,pywws,2013-01-03 10:47:00,
2013-01-03 10:52:00,52.2,49.0,30.50,SE,135,0.0,0.0,89,0.00,,,0.00,pywws,2013-01-03 10:52:00,
2013-01-03 10:57:00,52.3,49.2,30.50,North,0,0.0,0.0,89,0.00,,,0.00,pywws,2013-01-03 10:57:00,
2013-01-03 11:02:00,52.3,49.2,30.50,West,270,0.0,2.2,89,0.00,,,0.00,pywws,2013-01-03 11:02:00,
2013-01-03 11:03:00,52.5,49.4,30.50,North,0,2.2,5.4,89,0.00,,,0.00,pywws,2013-01-03 11:03:00,
2013-01-03 11:06:00,52.5,49.4,30.50,North,0,2.2,5.4,89,0.00,,,0.00,pywws,2013-01-03 11:06:00,
2013-01-03 11:07:00,52.5,49.4,30.50,North,0,2.2,5.4,89,0.00,,,0.00,pywws,2013-01-03 11:07:00,
2013-01-03 11:12:00,52.5,49.4,30.50,North,0,2.2,5.4,89,0.00,,,0.00,pywws,2013-01-03 11:12:00,
2013-01-03 11:18:00,52.3,48.9,30.50,SE,135,0.0,2.2,88,0.00,,,0.00,pywws,2013-01-03 11:18:00,
2013-01-03 11:23:00,52.2,48.7,30.51,WNW,292,0.0,0.0,88,0.00,,,0.00,pywws,2013-01-03 11:23:00,
2013-01-03 11:28:00,52.2,49.0,30.50,SE,135,0.0,0.0,89,0.00,,,0.00,pywws,2013-01-03 11:28:00,
2013-01-03 11:33:00,52.3,48.9,30.51,SW,225,0.0,0.0,88,0.00,,,0.00,pywws,2013-01-03 11:33:00,
2013-01-03 11:38:00,52.3,48.9,30.51,NW,315,0.0,0.0,88,0.00,,,0.00,pywws,2013-01-03 11:38:00,
2013-01-03 11:43:00,52.3,49.2,30.51,North,0,0.0,0.0,89,0.00,,,0.00,pywws,2013-01-03 11:43:00,
2013-01-03 11:48:00,52.7,49.5,30.51,SW,225,0.0,0.0,89,0.00,,,0.00,pywws,2013-01-03 11:48:00,
2013-01-03 11:53:00,52.9,49.4,30.52,North,0,0.0,0.0,88,0.00,,,0.00,pywws,2013-01-03 11:53:00,
2013-01-03 11:58:00,53.1,49.6,30.52,SE,135,0.0,0.0,88,0.00,,,0.00,pywws,2013-01-03 11:58:00,
2013-01-03 12:06:00,53.1,49.6,30.52,SSE,158,0.0,0.0,88,0.00,,,0.00,pywws,2013-01-03 12:06:00,
2013-01-03 12:11:00,53.1,49.6,30.52,SSE,158,0.0,0.0,88,0.00,,,0.00,pywws,2013-01-03 12:11:00,
2013-01-03 12:16:00,53.4,49.6,30.51,NW,315,0.0,0.7,87,0.00,,,0.00,pywws,2013-01-03 12:16:00,
2013-01-03 12:22:00,53.4,49.6,30.51,West,270,0.0,0.0,87,0.00,,,0.00,pywws,2013-01-03 12:22:00,
2013-01-03 12:27:00,53.4,49.6,30.51,SW,225,0.0,0.7,87,0.00,,,0.00,pywws,2013-01-03 12:27:00,
2013-01-03 12:32:00,53.4,49.6,30.51,NW,315,0.0,1.6,87,0.00,,,0.00,pywws,2013-01-03 12:32:00,
2013-01-03 12:37:00,53.4,49.6,30.51,NE,45,0.0,0.7,87,0.00,,,0.00,pywws,2013-01-03 12:37:00,
2013-01-03 12:42:00,53.6,49.8,30.51,North,0,0.0,0.0,87,0.00,,,0.00,pywws,2013-01-03 12:42:00,
2013-01-03 12:47:00,54.0,49.9,30.51,West,270,0.0,1.6,86,0.00,,,0.00,pywws,2013-01-03 12:47:00,
2013-01-03 12:52:00,54.1,49.7,30.52,NE,45,0.0,1.6,85,0.00,,,0.00,pywws,2013-01-03 12:52:00,
2013-01-03 12:58:00,54.3,50.2,30.51,North,0,0.0,0.0,86,0.00,,,0.00,pywws,2013-01-03 12:58:00,
2013-01-03 13:03:00,54.3,49.9,30.51,WSW,248,0.0,3.8,85,0.00,,,0.00,pywws,2013-01-03 13:03:00,
2013-01-03 13:08:00,54.3,49.9,30.51,WSW,248,0.0,3.8,85,0.00,,,0.00,pywws,2013-01-03 13:08:00,
2013-01-03 13:13:00,54.0,49.9,30.51,North,0,0.0,0.0,86,0.00,,,0.00,pywws,2013-01-03 13:13:00,
2013-01-03 13:18:00,54.0,49.6,30.52,North,0,0.0,1.6,85,0.00,,,0.00,pywws,2013-01-03 13:18:00,
2013-01-03 13:23:00,54.0,49.9,30.52,West,270,0.0,0.0,86,0.00,,,0.00,pywws,2013-01-03 13:23:00,
2013-01-03 13:28:00,53.8,49.7,30.52,North,0,0.0,0.0,86,0.00,,,0.00,pywws,2013-01-03 13:28:00,
2013-01-03 13:34:00,53.6,49.8,30.52,NW,315,0.0,0.7,87,0.00,,,0.00,pywws,2013-01-03 13:34:00,
2013-01-03 13:39:00,53.6,49.5,30.52,SW,225,0.0,0.0,86,0.00,,,0.00,pywws,2013-01-03 13:39:00,
2013-01-03 13:44:00,53.6,49.5,30.52,SW,225,0.0,0.0,86,0.00,,,0.00,pywws,2013-01-03 13:44:00,
2013-01-03 13:49:00,53.6,49.8,30.52,West,270,0.0,0.0,87,0.00,,,0.00,pywws,2013-01-03 13:49:00,
2013-01-03 13:54:00,53.4,49.6,30.52,West,270,0.0,0.0,87,0.00,,,0.00,pywws,2013-01-03 13:54:00,
2013-01-03 13:59:00,53.2,49.5,30.53,SSW,202,0.0,1.6,87,0.00,,,0.00,pywws,2013-01-03 13:59:00,
2013-01-03 14:06:00,53.2,49.5,30.53,SSW,202,0.0,1.6,87,0.00,,,0.00,pywws,2013-01-03 14:06:00,
2013-01-03 14:11:00,53.2,49.5,30.53,SSW,202,0.0,1.6,87,0.00,,,0.00,pywws,2013-01-03 14:11:00,
2013-01-03 14:16:00,53.2,49.5,30.53,SSW,202,0.0,0.0,87,0.00,,,0.00,pywws,2013-01-03 14:16:00,
2013-01-03 14:21:00,53.2,49.5,30.53,West,270,0.0,0.0,87,0.00,,,0.00,pywws,2013-01-03 14:21:00,
2013-01-03 14:26:00,53.2,49.8,30.53,SW,225,0.0,0.0,88,0.00,,,0.00,pywws,2013-01-03 14:26:00,
2013-01-03 14:31:00,53.2,49.8,30.53,West,270,0.0,0.0,88,0.00,,,0.00,pywws,2013-01-03 14:31:00,
2013-01-03 14:36:00,53.2,49.5,30.53,South,180,0.0,3.1,87,0.00,,,0.00,pywws,2013-01-03 14:36:00,
2013-01-03 14:41:00,53.2,49.5,30.53,NNW,338,0.0,0.0,87,0.00,,,0.00,pywws,2013-01-03 14:41:00,
2013-01-03 14:46:00,53.2,49.5,30.53,East,90,0.0,0.0,87,0.00,,,0.00,pywws,2013-01-03 14:46:00,
2013-01-03 14:51:00,53.2,49.5,30.53,North,0,0.0,0.0,87,0.00,,,0.00,pywws,2013-01-03 14:51:00,
2013-01-03 14:57:00,53.1,49.3,30.53,NE,45,0.0,0.0,87,0.00,,,0.00,pywws,2013-01-03 14:57:00,
2013-01-03 15:02:00,53.1,49.3,30.53,SW,225,0.0,0.0,87,0.00,,,0.00,pywws,2013-01-03 15:02:00,
2013-01-03 15:07:00,53.1,49.3,30.54,NW,315,0.0,0.0,87,0.00,,,0.00,pywws,2013-01-03 15:07:00,
2013-01-03 15:13:00,53.1,49.6,30.54,WNW,292,0.0,0.0,88,0.00,,,0.00,pywws,2013-01-03 15:13:00,
2013-01-03 15:18:00,53.1,49.6,30.54,SE,135,0.0,0.0,88,0.00,,,0.00,pywws,2013-01-03 15:18:00,
2013-01-03 15:23:00,52.9,49.4,30.54,NNE,22,0.0,0.0,88,0.00,,,0.00,pywws,2013-01-03 15:23:00,
2013-01-03 15:28:00,52.9,49.4,30.55,NE,45,0.0,0.7,88,0.00,,,0.00,pywws,2013-01-03 15:28:00,
2013-01-03 15:34:00,52.7,49.2,30.54,NW,315,0.0,0.7,88,0.00,,,0.00,pywws,2013-01-03 15:34:00,
2013-01-03 15:39:00,52.7,49.2,30.54,North,0,0.0,0.0,88,0.00,,,0.00,pywws,2013-01-03 15:39:00,
2013-01-03 15:44:00,52.7,49.5,30.55,SE,135,0.0,0.0,89,0.00,,,0.00,pywws,2013-01-03 15:44:00,
2013-01-03 15:49:00,52.5,49.4,30.55,NW,315,0.0,0.0,89,0.00,,,0.00,pywws,2013-01-03 15:49:00,
2013-01-03 15:54:00,52.3,49.2,30.55,West,270,0.0,0.0,89,0.00,,,0.00,pywws,2013-01-03 15:54:00,
2013-01-03 15:57:00,52.3,49.2,30.55,SE,135,0.0,0.0,89,0.00,,,0.00,pywws,2013-01-03 15:57:00,
2013-01-03 15:59:00,52.2,49.0,30.55,WNW,292,0.0,0.0,89,0.00,,,0.00,pywws,2013-01-03 15:59:00,
2013-01-03 16:03:00,52.2,49.0,30.55,WNW,292,0.0,0.0,89,0.00,,,0.00,pywws,2013-01-03 16:03:00,
2013-01-03 16:06:00,52.3,49.2,30.55,SE,135,0.0,0.0,89,0.00,,,0.00,pywws,2013-01-03 16:06:00,
2013-01-03 16:11:00,52.2,49.0,30.55,WNW,292,0.0,0.0,89,0.00,,,0.00,pywws,2013-01-03 16:11:00,
2013-01-03 16:16:00,52.0,48.8,30.55,NNE,22,0.0,0.0,89,0.00,,,0.00,pywws,2013-01-03 16:16:00,
2013-01-03 16:21:00,51.8,49.0,30.55,NW,315,0.0,0.0,90,0.00,,,0.00,pywws,2013-01-03 16:21:00,
2013-01-03 16:26:00,51.6,48.8,30.55,North,0,0.0,0.0,90,0.00,,,0.00,pywws,2013-01-03 16:26:00,
2013-01-03 16:31:00,51.6,48.8,30.56,SE,135,0.0,0.0,90,0.00,,,0.00,pywws,2013-01-03 16:31:00,
2013-01-03 16:36:00,51.4,48.6,30.55,NE,45,0.0,0.0,90,0.00,,,0.00,pywws,2013-01-03 16:36:00,
2013-01-03 16:42:00,51.3,48.4,30.55,East,90,0.0,0.0,90,0.00,,,0.00,pywws,2013-01-03 16:42:00,
2013-01-03 16:47:00,51.3,48.4,30.55,WNW,292,0.0,0.0,90,0.00,,,0.00,pywws,2013-01-03 16:47:00,
2013-01-03 16:52:00,51.3,48.7,30.55,North,0,0.0,0.0,91,0.00,,,0.00,pywws,2013-01-03 16:52:00,
2013-01-03 16:57:00,51.3,48.7,30.56,NE,45,0.0,0.0,91,0.00,,,0.00,pywws,2013-01-03 16:57:00,
2013-01-03 17:02:00,51.3,48.7,30.56,North,0,0.0,0.0,91,0.00,,,0.00,pywws,2013-01-03 17:02:00,
2013-01-03 17:07:00,51.3,48.7,30.56,North,0,0.0,0.0,91,0.00,,,0.00,pywws,2013-01-03 17:07:00,
2013-01-03 17:12:00,51.3,48.7,30.56,North,0,0.0,0.0,91,0.00,,,0.00,pywws,2013-01-03 17:12:00,
2013-01-03 17:18:00,51.3,48.7,30.57,NE,45,0.0,0.0,91,0.00,,,0.00,pywws,2013-01-03 17:18:00,
2013-01-03 17:23:00,51.4,48.6,30.58,NNE,22,0.0,0.0,90,0.00,,,0.00,pywws,2013-01-03 17:23:00,
2013-01-03 17:28:00,51.4,48.9,30.57,South,180,0.0,0.0,91,0.00,,,0.00,pywws,2013-01-03 17:28:00,
2013-01-03 17:33:00,51.4,48.9,30.57,North,0,0.0,0.0,91,0.00,,,0.00,pywws,2013-01-03 17:33:00,
2013-01-03 17:38:00,51.4,48.6,30.57,NE,45,0.0,0.0,90,0.00,,,0.00,pywws,2013-01-03 17:38:00,
2013-01-03 17:44:00,51.3,48.4,30.58,SE,135,0.0,0.7,90,0.00,,,0.00,pywws,2013-01-03 17:44:00,
2013-01-03 17:49:00,51.4,48.6,30.58,North,0,0.0,0.0,90,0.00,,,0.00,pywws,2013-01-03 17:49:00,
2013-01-03 17:54:00,51.4,48.6,30.58,SE,135,0.0,0.0,90,0.00,,,0.00,pywws,2013-01-03 17:54:00,
2013-01-03 17:59:00,51.4,48.6,30.58,NE,45,0.0,0.0,90,0.00,,,0.00,pywws,2013-01-03 17:59:00,
2013-01-03 18:06:00,51.4,48.6,30.58,NE,45,0.0,0.0,90,0.00,,,0.00,pywws,2013-01-03 18:06:00,
2013-01-03 18:11:00,51.4,48.6,30.58,East,90,0.0,0.0,90,0.00,,,0.00,pywws,2013-01-03 18:11:00,
2013-01-03 18:16:00,51.4,48.6,30.58,NE,45,0.0,0.0,90,0.00,,,0.00,pywws,2013-01-03 18:16:00,
2013-01-03 18:21:00,51.4,48.6,30.58,West,270,0.0,0.0,90,0.00,,,0.00,pywws,2013-01-03 18:21:00,
2013-01-03 18:26:00,51.4,48.6,30.59,SW,225,0.0,0.0,90,0.00,,,0.00,pywws,2013-01-03 18:26:00,
2013-01-03 18:31:00,51.4,48.6,30.58,North,0,0.0,0.0,90,0.00,,,0.00,pywws,2013-01-03 18:31:00,
2013-01-03 18:36:00,51.4,48.6,30.58,East,90,0.0,0.0,90,0.00,,,0.00,pywws,2013-01-03 18:36:00,
2013-01-03 18:41:00,51.4,48.6,30.58,East,90,0.0,0.0,90,0.00,,,0.00,pywws,2013-01-03 18:41:00,
2013-01-03 18:46:00,51.4,48.6,30.59,SE,135,0.0,0.0,90,0.00,,,0.00,pywws,2013-01-03 18:46:00,
2013-01-03 18:51:00,51.4,48.6,30.59,East,90,0.0,0.0,90,0.00,,,0.00,pywws,2013-01-03 18:51:00,
2013-01-03 18:56:00,51.4,48.6,30.59,East,90,0.0,0.0,90,0.00,,,0.00,pywws,2013-01-03 18:56:00,
2013-01-03 19:02:00,51.4,48.6,30.59,NW,315,0.0,0.0,90,0.00,,,0.00,pywws,2013-01-03 19:02:00,
2013-01-03 19:07:00,51.4,48.6,30.59,NE,45,0.0,0.0,90,0.00,,,0.00,pywws,2013-01-03 19:07:00,
2013-01-03 19:13:00,51.4,48.6,30.59,North,0,0.0,0.0,90,0.00,,,0.00,pywws,2013-01-03 19:13:00,
2013-01-03 19:18:00,51.4,48.6,30.59,South,180,0.0,0.0,90,0.00,,,0.00,pywws,2013-01-03 19:18:00,
2013-01-03 19:55:00,51.6,48.5,30.59,East,90,0.0,0.0,89,0.00,,,0.00,pywws,2013-01-03 19:55:00,
2013-01-03 20:02:00,51.8,48.7,30.59,WNW,292,0.0,0.0,89,0.00,,,0.00,pywws,2013-01-03 20:02:00,
2013-01-03 20:07:00,51.8,48.7,30.59,WNW,292,0.0,0.0,89,0.00,,,0.00,pywws,2013-01-03 20:07:00,
2013-01-03 20:13:00,51.8,48.7,30.59,WNW,292,0.0,0.0,89,0.00,,,0.00,pywws,2013-01-03 20:13:00,
2013-01-03 20:19:00,51.8,48.7,30.58,NE,45,0.0,0.0,89,0.00,,,0.00,pywws,2013-01-03 20:19:00,
2013-01-03 20:23:00,51.8,48.7,30.58,North,0,0.0,0.0,89,0.00,,,0.00,pywws,2013-01-03 20:23:00,
2013-01-03 20:27:00,51.8,48.7,30.58,North,0,0.0,0.0,89,0.00,,,0.00,pywws,2013-01-03 20:27:00,
2013-01-03 20:31:00,51.8,48.7,30.58,SSE,158,0.0,0.0,89,0.00,,,0.00,pywws,2013-01-03 20:31:00,
2013-01-03 20:35:00,51.8,48.7,30.58,NE,45,0.0,0.0,89,0.00,,,0.00,pywws,2013-01-03 20:35:00,
2013-01-03 20:44:00,52.0,48.8,30.58,North,0,0.0,0.0,89,0.00,,,0.00,pywws,2013-01-03 20:44:00,
2013-01-03 20:51:00,52.0,48.8,30.59,North,0,0.0,0.0,89,0.00,,,0.00,pywws,2013-01-03 20:51:00,
2013-01-03 20:59:00,52.2,49.0,30.60,South,180,0.0,0.0,89,0.00,,,0.00,pywws,2013-01-03 20:59:00,
2013-01-03 21:03:00,52.2,49.0,30.60,West,270,0.7,6.0,89,0.00,,,0.00,pywws,2013-01-03 21:03:00,
2013-01-03 21:06:00,52.2,49.0,30.60,South,180,0.0,0.0,89,0.00,,,0.00,pywws,2013-01-03 21:06:00,
2013-01-03 21:12:00,52.2,49.0,30.60,West,270,0.7,6.0,89,0.00,,,0.00,pywws,2013-01-03 21:12:00,
2013-01-03 21:17:00,52.2,49.0,30.60,SSW,202,0.0,0.0,89,0.00,,,0.00,pywws,2013-01-03 21:17:00,
2013-01-03 21:22:00,52.0,48.8,30.60,NW,315,0.0,0.0,89,0.00,,,0.00,pywws,2013-01-03 21:22:00,
2013-01-03 21:27:00,52.0,49.1,30.61,North,0,0.0,0.0,90,0.00,,,0.00,pywws,2013-01-03 21:27:00,
2013-01-03 21:32:00,52.0,49.1,30.60,SE,135,0.0,0.0,90,0.00,,,0.00,pywws,2013-01-03 21:32:00,
2013-01-03 21:38:00,52.0,49.1,30.61,North,0,0.0,0.0,90,0.00,,,0.00,pywws,2013-01-03 21:38:00,
2013-01-03 21:43:00,52.0,49.1,30.60,NW,315,0.0,0.0,90,0.00,,,0.00,pywws,2013-01-03 21:43:00,
2013-01-03 21:48:00,52.0,49.1,30.60,NE,45,0.0,1.6,90,0.00,,,0.00,pywws,2013-01-03 21:48:00,
2013-01-03 21:54:00,52.2,49.0,30.61,NE,45,0.0,0.0,89,0.00,,,0.00,pywws,2013-01-03 21:54:00,
2013-01-03 21:59:00,52.2,49.0,30.62,NW,315,0.0,0.0,89,0.00,,,0.00,pywws,2013-01-03 21:59:00,
2013-01-03 22:06:00,52.2,49.0,30.61,SW,225,0.0,0.0,89,0.00,,,0.00,pywws,2013-01-03 22:06:00,
2013-01-03 22:11:00,52.2,49.0,30.60,NE,45,0.0,0.0,89,0.00,,,0.00,pywws,2013-01-03 22:11:00,
2013-01-03 22:16:00,52.0,48.8,30.61,North,0,0.0,0.0,89,0.00,,,0.00,pywws,2013-01-03 22:16:00,
2013-01-03 22:21:00,52.3,49.2,30.62,NW,315,0.7,3.8,89,0.00,,,0.00,pywws,2013-01-03 22:21:00,
2013-01-03 22:26:00,52.0,48.8,30.62,NE,45,0.0,0.0,89,0.00,,,0.00,pywws,2013-01-03 22:26:00,
2013-01-03 22:31:00,52.3,49.2,30.62,West,270,0.0,0.0,89,0.00,,,0.00,pywws,2013-01-03 22:31:00,
2013-01-03 22:36:00,52.0,48.8,30.62,SE,135,0.0,0.0,89,0.00,,,0.00,pywws,2013-01-03 22:36:00,
2013-01-03 22:41:00,52.0,48.8,30.62,NW,315,0.0,0.0,89,0.00,,,0.00,pywws,2013-01-03 22:41:00,
2013-01-03 22:46:00,52.0,48.8,30.61,North,0,0.0,0.0,89,0.00,,,0.00,pywws,2013-01-03 22:46:00,
2013-01-03 22:51:00,52.0,48.8,30.61,North,0,0.0,0.0,89,0.00,,,0.00,pywws,2013-01-03 22:51:00,
2013-01-03 22:57:00,52.0,48.8,30.61,East,90,0.0,0.0,89,0.00,,,0.00,pywws,2013-01-03 22:57:00,
2013-01-03 23:02:00,51.8,48.7,30.62,North,0,0.0,0.0,89,0.00,,,0.00,pywws,2013-01-03 23:02:00,
2013-01-03 23:07:00,51.8,48.7,30.61,North,0,0.0,0.0,89,0.00,,,0.00,pywws,2013-01-03 23:07:00,
2013-01-03 23:13:00,51.8,48.7,30.62,WNW,292,0.0,0.0,89,0.00,,,0.00,pywws,2013-01-03 23:13:00,
2013-01-03 23:18:00,51.8,48.7,30.62,West,270,0.0,0.0,89,0.00,,,0.00,pywws,2013-01-03 23:18:00,
2013-01-03 23:23:00,51.8,48.7,30.62,West,270,0.0,0.0,89,0.00,,,0.00,pywws,2013-01-03 23:23:00,
2013-01-03 23:28:00,51.8,48.7,30.62,East,90,0.0,0.0,89,0.00,,,0.00,pywws,2013-01-03 23:28:00,
2013-01-03 23:34:00,51.8,48.4,30.62,West,270,0.0,0.0,88,0.00,,,0.00,pywws,2013-01-03 23:34:00,
2013-01-03 23:39:00,51.8,48.4,30.62,NW,315,0.0,0.0,88,0.00,,,0.00,pywws,2013-01-03 23:39:00,
2013-01-03 23:44:00,51.6,47.9,30.62,NW,315,0.0,0.0,87,0.00,,,0.00,pywws,2013-01-03 23:44:00,
2013-01-03 23:49:00,51.6,47.9,30.62,SSE,158,0.0,0.0,87,0.00,,,0.00,pywws,2013-01-03 23:49:00,
2013-01-03 23:54:00,51.6,47.9,30.62,NE,45,0.0,0.0,87,0.00,,,0.00,pywws,2013-01-03 23:54:00,
2013-01-03 23:59:00,51.4,47.4,30.62,West,270,0.0,1.6,86,0.00,,,0.00,pywws,2013-01-03 23:59:00,